This demonstration page uses our WeatherBlox Daily Observations layout. Learn more.

Left ArrowRight Arrow

Hourly Observations for April 24, 2018

Temp ( °F °C ) Dew Point ( °F °C ) Humidity (%) Winds ( mph kmh ) Pressure ( in mb ) Visibility ( mi km ) Precip ( " mm )
12:59 am 00:59 Mostly Cloudy 56 13.3 46 7.8 70 70 E 7 11 30.31 1026 10 16 0.00 0.00
1:59 am 01:59 Mostly Cloudy 57 13.9 46 7.8 67 67 E 9 15 30.28 1026 10 16 0.00 0.00
2:59 am 02:59 Mostly Cloudy 57 13.9 47 8.3 69 69 E 12 19 30.26 1025 10 16 0.00 0.00
3:59 am 03:59 Mostly Cloudy 57 13.9 49 9.4 74 74 E 8 13 30.24 1024 10 16 0.00 0.00
4:59 am 04:59 Mostly Cloudy 58 14.4 49 9.4 72 72 ESE 8 13 30.22 1024 10 16 0.00 0.00
5:59 am 05:59 Cloudy 59 15 50 10 72 72 ESE 10 17 30.21 1023 9 14 0.00 0.00
6:59 am 06:59 Cloudy with Light Rain 60 15.6 50 10 70 70 ESE 13 20 30.21 1023 9 14 0.00 0.03
7:59 am 07:59 Cloudy with Light Rain 59 15 51 10.6 75 75 ESE 14 22 30.21 1023 7 11 0.00 0.03
8:59 am 08:59 Cloudy with Light Rain 58 14.4 52 11.1 81 81 ESE 14 22 30.21 1023 5 8 0.03 0.76
9:59 am 09:59 Cloudy with Light Rain 58 14.4 53 11.7 84 84 ESE 13 20 30.20 1023 5 8 0.05 1.27
10:59 am 10:59 Cloudy with Light Rain 58 14.4 53 11.7 84 84 ESE 14 22 30.19 1022 5 8 0.06 1.52
11:59 am 11:59 Cloudy with Light Rain 58 14.4 54 12.2 87 87 ESE 14 22 30.17 1022 4 6 0.05 1.27
12:59 pm 12:59 Cloudy with Light Rain 59 15 55 12.8 87 87 ESE 17 28 30.14 1021 5 8 0.03 0.76
1:59 pm 13:59 Cloudy with Light Rain 59 15 55 12.8 87 87 ESE 18 30 30.11 1020 4 6 0.02 0.51
2:21 pm 14:21 Cloudy with Light Rain 59 15 55 12.8 87 87 ESE 15 24 30.09 1019 3 5 0.02 0.51
2:30 pm 14:30 Cloudy with Light Rain 59 15 55 12.8 87 87 ESE 16 26 30.09 1019 4 6 0.03 0.76
2:59 pm 14:59 Cloudy with Light Rain 58 14.4 55 12.8 90 90 ESE 14 22 30.06 1018 3 5 0.06 1.52
3:59 pm 15:59 Cloudy with Light Rain 59 15 56 13.3 90 90 ESE 18 30 30.01 1016 5 8 0.04 1.02
4:38 pm 16:38 Cloudy with Light Rain 59 15 56 13.3 90 90 ESE 22 35 30.00 1016 2 3 0.03 0.76
4:47 pm 16:47 Cloudy with Rain 59 15 56 13.3 90 90 ESE 22 35 30.00 1016 1 2 0.04 1.02
4:54 pm 16:54 Cloudy with Rain 59 15 57 14 94 94 ESE 21 33 30.00 1016 2 2 0.05 1.27
4:59 pm 16:59 Cloudy with Rain 59 15 57 13.9 93 93 ESE 20 31 30.00 1016 2 3 0.06 1.52
5:17 pm 17:17 Cloudy with Rain 59 15 56 13.3 90 90 ESE 20 31 30.00 1016 1 2 0.03 0.76
5:33 pm 17:33 Cloudy with Rain 59 15 57 13.9 93 93 ESE 17 28 30.00 1016 1 2 0.05 1.27
5:41 pm 17:41 Cloudy with Rain 59 15 57 13.9 93 93 ESE 17 28 30.00 1016 2 3 0.05 1.27
5:51 pm 17:51 Cloudy with Rain 59 15 56 13.3 90 90 ESE 17 28 29.97 1015 6 10 0.06 1.52
5:59 pm 17:59 Cloudy with Rain 59 15 56 13.3 90 90 ESE 21 33 29.98 1015 5 8 0.06 1.52
6:47 pm 18:47 Cloudy with Light Rain 59 15 57 13.9 93 93 ESE 17 28 29.97 1015 2 3 0.01 0.25
6:59 pm 18:59 Cloudy with Light Rain 59 15 57 13.9 93 93 ESE 17 28 29.95 1014 2 3 0.03 0.76
7:06 pm 19:06 Cloudy with Light Rain 59 15 57 13.9 93 93 ESE 14 22 29.94 1014 3 5 0.00 0.03
7:59 pm 19:59 Cloudy with Light Rain 60 15.6 57 13.9 90 90 ESE 16 26 29.94 1014 3 5 0.02 0.51
8:59 pm 20:59 Cloudy 60 15.6 57 13.9 90 90 SE 15 24 29.93 1014 8 13 0.00 0.03
9:59 pm 21:59 Cloudy 61 16.1 59 15 93 93 SE 12 19 29.93 1013 8 13 0.01 0.25
10:59 pm 22:59 Cloudy 62 16.7 60 15.6 93 93 SE 10 17 29.91 1013 8 13 0.00 0.00
11:59 pm 23:59 Cloudy 62 16.7 59 15 90 90 SE 12 19 29.87 1012 7 11 0.00 0.00

Powered by AerisWeather